Flag for Qatar Weather past 2 weeks in Al Khor, Qatar

Now
100 °F

Sunny.


Feels Like: 97 °F
Forecast: 86 / 106 °F
Wind: 9 mph from Southeast

Location: Al Udeid

Current Time: May 22, 2015 at 7:36:51 PM

Latest Report: May 22, 2015 at 6:58 PM


Visibility: N/A

Pressure: 29.65 "Hg

Humidity: 19%

Dew point: 50 °F

Location of Al KhorLocation

Historic Weather in Al Khor — Graph

°F

Al Khor temperature yesterday

Maximum temperature yesterday: 110 °F (at 1:58 PM)
Minimum temperature yesterday: 78 °F (at 4:58 AM)
Average temperature yesterday: 94 °F

Past Weeks' High & Low Weather Summary

 TemperatureHumidityPressure
High113 °F (May 14, 12:58 PM)75% (May 17, 9:58 AM)29.84 "Hg (May 17, 9:58 AM)
Low38 °F (May 17, 9:58 AM)6% (May 10, 2:58 PM)29.63 "Hg (May 9, 3:58 PM)
Average94 °F26%29.73 "Hg
* Reported May 7 5:55 PM — May 22 5:58 PM, Al Khor, Weather by CustomWeather, © 2015

Note: Actual official high and low records may vary slightly from our data, if they occured in-between our weather recording intervals... More about our weather records

Advertising

Al Khor weather history for previous 24 hours

 ConditionsComfort  
Time TempWeatherWind HumidityBarometerVisibility
5:58 PM
Fri, May 22
105 °FSunny.12 mph8%29.64 "HgN/A
4:58 PM108 °FSunny.12 mph7%29.65 "HgN/A
3:58 PM110 °FSunny.12 mph7%29.65 "HgN/A
2:58 PM111 °FSunny.12 mph6%29.66 "HgN/A
1:58 PM111 °FSunny.15 mph8%29.67 "HgN/A
12:58 PM111 °FSunny.5 mph7%29.69 "HgN/A
11:58 AM111 °FClear.6 mph8%29.70 "HgN/A
10:58 AM109 °FClear.6 mph8%29.71 "HgN/A
9:58 AM105 °FClear.3 mph10%29.72 "HgN/A
8:58 AM101 °FClear.5 mph12%29.72 "HgN/A
7:58 AM96 °FClear.No wind15%29.72 "HgN/A
6:58 AM87 °FClear.3 mph29%29.72 "HgN/A
5:58 AM83 °FClear.2 mph33%29.70 "HgN/A
4:58 AM82 °FClear.2 mph32%29.68 "HgN/A
3:58 AM82 °FClear.2 mph35%29.67 "HgN/A
2:58 AM86 °FClear.1 mph32%29.66 "HgN/A
1:58 AM85 °FSunny.2 mph32%29.66 "HgN/A
12:58 AM88 °FSunny.3 mph29%29.68 "HgN/A
11:58 PM
Thu, May 21
85 °FSunny.2 mph35%29.69 "HgN/A
10:58 PM85 °FSunny.6 mph32%29.71 "HgN/A
9:58 PM87 °FSunny.7 mph28%29.72 "HgN/A
8:58 PM90 °FSunny.7 mph23%29.72 "HgN/A
7:58 PM93 °FSunny.6 mph20%29.70 "HgN/A
Weather by CustomWeather, © 2015

See weather overviewHow to use our weather pages